Language: 


Des rapports , des résumés tant et plus, au choix de chacun....


Données Historiques de Météogheer
Journalier Rapport pour Février 6, 2018 Unitée:  Métrique    Impériale   Les deux
Suivant Jour »
Journalier Hebdomadaire Mensuel Annuel Sur mesure
  Max: Min: Moyenne:
Température: 2.0 °C -2.0 °C -0.3 °C
Point de rosée: -1.0 °C -4.0 °C -3 °C
Humidité: 95% 69% 84%
Vent: 19.8km/h 5.5km/h 12.8km/h
Rafales: 20.1km/h - -
Vent- - NE
Pression: 1018.8 hPa 1012.1 hPa -
Pluie: 0.0 mm    
Historical Graphs
 
 
Données tabulaires pour Février 6, 2018
Heure Température Point de rosée Pression Vent Vent Rafales Humidité Pluie Taux (Horaire) Conditions
00:04 0.3 °C -1.0 °C 1018.8 hPa NE 12.6 km/h 14.8 km/h 90% 0.0 mm
00:09 0.3 °C -1.0 °C 1018.8 hPa NE 13.0 km/h 15.1 km/h 89% 0.0 mm
00:14 0.3 °C -1.0 °C 1018.2 hPa NE 13.7 km/h 15.1 km/h 89% 0.0 mm
00:19 0.2 °C -1.0 °C 1018.2 hPa NE 13.0 km/h 16.9 km/h 89% 0.0 mm
00:24 0.2 °C -1.0 °C 1018.2 hPa ENE 15.1 km/h 17.2 km/h 89% 0.0 mm
00:29 0.2 °C -1.0 °C 1018.2 hPa NE 11.9 km/h 17.2 km/h 89% 0.0 mm
00:34 0.2 °C -1.0 °C 1018.2 hPa ENE 12.2 km/h 15.1 km/h 89% 0.0 mm
00:39 0.2 °C -1.0 °C 1018.2 hPa ENE 12.2 km/h 12.6 km/h 89% 0.0 mm
00:44 0.2 °C -1.0 °C 1018.2 hPa ENE 12.2 km/h 12.6 km/h 89% 0.0 mm
00:49 0.2 °C -1.0 °C 1018.2 hPa ENE 12.2 km/h 12.6 km/h 89% 0.0 mm
00:54 0.1 °C -1.0 °C 1018.2 hPa ENE 12.2 km/h 12.2 km/h 89% 0.0 mm
00:59 0.1 °C -1.0 °C 1016.8 hPa ENE 12.2 km/h 12.2 km/h 88% 0.0 mm
01:04 0.1 °C -1.0 °C 1016.8 hPa NE 12.2 km/h 12.2 km/h 88% 0.0 mm
01:09 0.0 °C -3.0 °C 1016.8 hPa NE 12.2 km/h 12.2 km/h 88% 0.0 mm
01:14 0.0 °C -3.0 °C 1016.8 hPa NE 12.2 km/h 12.2 km/h 88% 0.0 mm
01:19 -0.1 °C -3.0 °C 1016.8 hPa ENE 9.3 km/h 12.2 km/h 88% 0.0 mm
01:24 -0.1 °C -3.0 °C 1016.8 hPa ENE 9.7 km/h 12.2 km/h 88% 0.0 mm
01:29 -0.1 °C -3.0 °C 1016.1 hPa ENE 9.7 km/h 10.8 km/h 88% 0.0 mm
01:34 -0.1 °C -3.0 °C 1016.1 hPa ENE 9.7 km/h 9.7 km/h 88% 0.0 mm
01:39 -0.1 °C -3.0 °C 1016.1 hPa ENE 10.5 km/h 13.7 km/h 88% 0.0 mm
01:44 -0.2 °C -3.0 °C 1016.8 hPa NNE 9.3 km/h 13.7 km/h 88% 0.0 mm
01:50 -0.2 °C -3.0 °C 1016.8 hPa NNE 9.3 km/h 10.5 km/h 88% 0.0 mm
01:55 -0.2 °C -3.0 °C 1016.8 hPa NNE 9.3 km/h 9.3 km/h 88% 0.0 mm
02:00 -0.3 °C -3.0 °C 1016.8 hPa NNE 12.6 km/h 12.6 km/h 88% 0.0 mm
02:05 -0.3 °C -3.0 °C 1016.8 hPa NE 9.3 km/h 12.6 km/h 88% 0.0 mm
02:10 -0.4 °C -3.0 °C 1016.8 hPa NE 9.3 km/h 12.6 km/h 88% 0.0 mm
02:15 -0.4 °C -3.0 °C 1016.8 hPa NE 12.6 km/h 12.6 km/h 88% 0.0 mm
02:20 -0.5 °C -3.0 °C 1016.8 hPa NE 12.6 km/h 14.0 km/h 88% 0.0 mm
02:21 -0.5 °C -3.0 °C 1016.8 hPa NE 12.6 km/h 14.0 km/h 88% 0.0 mm
02:26 -0.5 °C -3.0 °C 1016.8 hPa NE 11.6 km/h 14.0 km/h 88% 0.0 mm
02:31 -0.6 °C -3.0 °C 1016.8 hPa ENE 11.9 km/h 12.6 km/h 88% 0.0 mm
02:36 -0.6 °C -3.0 °C 1016.8 hPa ENE 10.1 km/h 11.9 km/h 88% 0.0 mm
02:41 -0.7 °C -3.0 °C 1016.8 hPa ENE 16.3 km/h 16.3 km/h 88% 0.0 mm
02:46 -0.7 °C -3.0 °C 1016.1 hPa NE 14.0 km/h 16.3 km/h 88% 0.0 mm
02:51 -0.7 °C -3.0 °C 1016.1 hPa NE 12.6 km/h 16.3 km/h 88% 0.0 mm
02:56 -0.8 °C -3.0 °C 1016.1 hPa ENE 16.3 km/h 16.3 km/h 88% 0.0 mm
03:01 -0.8 °C -3.0 °C 1016.1 hPa NNE 14.3 km/h 16.3 km/h 88% 0.0 mm
03:06 -0.9 °C -3.0 °C 1016.1 hPa ENE 12.2 km/h 16.3 km/h 88% 0.0 mm
03:11 -0.9 °C -3.0 °C 1016.1 hPa NE 11.9 km/h 14.3 km/h 88% 0.0 mm
03:16 -1.0 °C -3.0 °C 1015.1 hPa NE 13.7 km/h 13.7 km/h 89% 0.0 mm
03:21 -1.0 °C -3.0 °C 1015.1 hPa ENE 9.0 km/h 13.7 km/h 89% 0.0 mm
03:26 -1.1 °C -3.0 °C 1015.1 hPa NE 12.6 km/h 15.1 km/h 89% 0.0 mm
03:31 -1.1 °C -3.0 °C 1015.1 hPa ENE 10.1 km/h 15.1 km/h 90% 0.0 mm
03:36 -1.1 °C -3.0 °C 1015.1 hPa ENE 12.2 km/h 15.1 km/h 90% 0.0 mm
03:41 -1.2 °C -3.0 °C 1015.1 hPa ENE 9.0 km/h 14.0 km/h 90% 0.0 mm
03:46 -1.2 °C -3.0 °C 1015.1 hPa NE 11.9 km/h 13.7 km/h 90% 0.0 mm
03:51 -1.3 °C -3.0 °C 1015.1 hPa NE 6.9 km/h 14.0 km/h 90% 0.0 mm
03:56 -1.3 °C -3.0 °C 1015.1 hPa ENE 6.1 km/h 14.0 km/h 90% 0.0 mm
04:01 -1.4 °C -3.0 °C 1015.1 hPa NE 6.4 km/h 11.9 km/h 90% 0.0 mm
04:06 -1.4 °C -3.0 °C 1015.1 hPa ENE 8.7 km/h 13.0 km/h 90% 0.0 mm
04:11 -1.4 °C -3.0 °C 1015.1 hPa ENE 6.9 km/h 13.0 km/h 90% 0.0 mm
04:16 -1.5 °C -4.0 °C 1015.1 hPa ENE 9.0 km/h 11.9 km/h 90% 0.0 mm
04:21 -1.5 °C -3.0 °C 1015.1 hPa NE 10.5 km/h 11.9 km/h 91% 0.0 mm
04:26 -1.5 °C -3.0 °C 1015.1 hPa ENE 8.7 km/h 10.5 km/h 91% 0.0 mm
04:31 -1.4 °C -3.0 °C 1015.1 hPa ENE 9.3 km/h 10.5 km/h 91% 0.0 mm
04:36 -1.4 °C -3.0 °C 1015.1 hPa NE 13.0 km/h 13.7 km/h 92% 0.0 mm
04:41 -1.4 °C -3.0 °C 1015.1 hPa NE 10.5 km/h 14.0 km/h 92% 0.0 mm
04:47 -1.3 °C -3.0 °C 1015.1 hPa NE 5.5 km/h 14.0 km/h 92% 0.0 mm
04:52 -1.4 °C -3.0 °C 1015.1 hPa ENE 7.9 km/h 13.0 km/h 92% 0.0 mm
04:57 -1.4 °C -3.0 °C 1015.1 hPa NNE 10.5 km/h 13.0 km/h 91% 0.0 mm
05:02 -1.4 °C -3.0 °C 1014.1 hPa ENE 6.4 km/h 13.7 km/h 91% 0.0 mm
05:07 -1.4 °C -3.0 °C 1014.1 hPa NE 6.9 km/h 13.7 km/h 91% 0.0 mm
05:12 -1.4 °C -3.0 °C 1014.1 hPa NNE 10.5 km/h 12.2 km/h 91% 0.0 mm
05:17 -1.5 °C -3.0 °C 1015.1 hPa NNE 10.8 km/h 12.2 km/h 92% 0.0 mm
05:22 -1.5 °C -3.0 °C 1015.1 hPa NE 13.7 km/h 14.0 km/h 92% 0.0 mm
05:27 -1.5 °C -3.0 °C 1015.1 hPa NNE 12.6 km/h 14.0 km/h 92% 0.0 mm
05:32 -1.5 °C -3.0 °C 1014.1 hPa NE 11.9 km/h 13.7 km/h 92% 0.0 mm
05:37 -1.5 °C -3.0 °C 1014.1 hPa NNE 5.5 km/h 13.7 km/h 93% 0.0 mm
05:42 -1.5 °C -3.0 °C 1014.1 hPa NNE 9.3 km/h 12.6 km/h 93% 0.0 mm
05:47 -1.5 °C -3.0 °C 1015.1 hPa NNE 7.9 km/h 13.7 km/h 93% 0.0 mm
05:52 -1.5 °C -3.0 °C 1015.1 hPa North 10.1 km/h 13.7 km/h 93% 0.0 mm
05:57 -1.5 °C -3.0 °C 1015.1 hPa NNE 10.5 km/h 13.7 km/h 93% 0.0 mm
06:02 -1.5 °C -3.0 °C 1014.1 hPa North 9.3 km/h 16.6 km/h 93% 0.0 mm
06:07 -1.5 °C -3.0 °C 1014.1 hPa NNE 9.0 km/h 16.6 km/h 93% 0.0 mm
06:12 -1.6 °C -3.0 °C 1014.1 hPa NNE 15.8 km/h 15.8 km/h 93% 0.0 mm
06:17 -1.6 °C -3.0 °C 1014.1 hPa NNE 12.6 km/h 15.8 km/h 93% 0.0 mm
06:22 -1.6 °C -3.0 °C 1014.1 hPa NE 12.2 km/h 15.8 km/h 93% 0.0 mm
06:27 -1.6 °C -3.0 °C 1014.1 hPa North 11.1 km/h 14.0 km/h 93% 0.0 mm
06:32 -1.6 °C -3.0 °C 1014.1 hPa ENE 10.5 km/h 13.0 km/h 93% 0.0 mm
06:38 -1.6 °C -3.0 °C 1014.1 hPa NE 8.7 km/h 14.0 km/h 93% 0.0 mm
06:43 -1.6 °C -3.0 °C 1014.1 hPa NNE 11.1 km/h 14.0 km/h 93% 0.0 mm
06:48 -1.7 °C -3.0 °C 1014.1 hPa NNE 10.1 km/h 14.0 km/h 93% 0.0 mm
06:53 -1.7 °C -3.0 °C 1014.1 hPa NE 13.7 km/h 19.1 km/h 93% 0.0 mm
06:58 -1.8 °C -3.0 °C 1014.1 hPa NE 13.7 km/h 19.1 km/h 93% 0.0 mm
07:03 -1.8 °C -3.0 °C 1014.1 hPa NE 13.7 km/h 16.6 km/h 93% 0.0 mm
07:08 -1.8 °C -3.0 °C 1014.1 hPa NE 13.0 km/h 16.6 km/h 93% 0.0 mm
07:13 -1.9 °C -3.0 °C 1014.1 hPa NE 12.6 km/h 16.3 km/h 93% 0.0 mm
07:18 -1.9 °C -3.0 °C 1014.1 hPa NE 13.0 km/h 16.3 km/h 93% 0.0 mm
07:23 -1.9 °C -3.0 °C 1014.1 hPa ENE 9.0 km/h 16.3 km/h 94% 0.0 mm
07:28 -1.9 °C -3.0 °C 1014.1 hPa NNE 9.0 km/h 15.8 km/h 94% 0.0 mm
07:33 -1.9 °C -3.0 °C 1014.1 hPa NNE 13.7 km/h 15.1 km/h 94% 0.0 mm
07:38 -1.9 °C -3.0 °C 1014.1 hPa NNE 10.1 km/h 14.0 km/h 94% 0.0 mm
07:43 -1.9 °C -3.0 °C 1014.1 hPa NNE 12.2 km/h 14.0 km/h 94% 0.0 mm
07:48 -2.0 °C -3.0 °C 1014.1 hPa North 15.4 km/h 15.4 km/h 95% 0.0 mm
07:53 -2.0 °C -3.0 °C 1014.1 hPa NNE 11.9 km/h 15.4 km/h 95% 0.0 mm
07:58 -2.0 °C -3.0 °C 1014.1 hPa NNE 11.9 km/h 13.7 km/h 95% 0.0 mm
08:03 -2.0 °C -3.0 °C 1014.1 hPa NNE 11.9 km/h 11.9 km/h 95% 0.0 mm
08:08 -2.0 °C -3.0 °C 1014.1 hPa NE 9.7 km/h 11.9 km/h 95% 0.0 mm
08:13 -2.0 °C -3.0 °C 1014.1 hPa NNE 13.0 km/h 15.8 km/h 95% 0.0 mm
08:18 -1.9 °C -3.0 °C 1014.1 hPa NE 14.0 km/h 15.8 km/h 94% 0.0 mm
08:23 -1.9 °C -3.0 °C 1014.1 hPa NE 13.7 km/h 14.0 km/h 94% 0.0 mm
08:28 -1.9 °C -3.0 °C 1014.1 hPa NE 13.7 km/h 14.0 km/h 93% 0.0 mm
08:33 -1.9 °C -3.0 °C 1014.1 hPa NE 16.3 km/h 16.3 km/h 93% 0.0 mm
08:38 -1.9 °C -3.0 °C 1014.1 hPa NE 14.0 km/h 16.3 km/h 93% 0.0 mm
08:43 -1.8 °C -3.0 °C 1014.1 hPa NE 14.0 km/h 16.3 km/h 92% 0.0 mm
08:48 -1.8 °C -3.0 °C 1014.1 hPa NNE 10.5 km/h 14.0 km/h 92% 0.0 mm
08:53 -1.8 °C -3.0 °C 1014.1 hPa NNE 10.5 km/h 14.0 km/h 92% 0.0 mm
08:59 -1.7 °C -3.0 °C 1014.1 hPa NNE 13.7 km/h 16.9 km/h 92% 0.0 mm
09:04 -1.7 °C -3.0 °C 1014.1 hPa NNE 13.7 km/h 16.9 km/h 91% 0.0 mm
09:09 -1.7 °C -3.0 °C 1014.1 hPa NE 14.0 km/h 14.0 km/h 91% 0.0 mm
09:14 -1.7 °C -3.0 °C 1014.1 hPa NE 14.0 km/h 14.0 km/h 91% 0.0 mm
09:19 -1.6 °C -3.0 °C 1014.1 hPa NE 14.0 km/h 14.0 km/h 91% 0.0 mm
09:24 -1.6 °C -4.0 °C 1014.1 hPa NE 14.0 km/h 14.0 km/h 90% 0.0 mm
09:29 -1.6 °C -4.0 °C 1014.1 hPa NE 14.0 km/h 14.0 km/h 90% 0.0 mm
09:34 -1.6 °C -4.0 °C 1014.1 hPa NE 14.0 km/h 14.0 km/h 90% 0.0 mm
09:39 -1.6 °C -4.0 °C 1014.1 hPa NNE 14.0 km/h 14.0 km/h 90% 0.0 mm
09:44 -1.6 °C -4.0 °C 1014.1 hPa NE 16.3 km/h 16.3 km/h 90% 0.0 mm
09:49 -1.6 °C -4.0 °C 1014.1 hPa NE 14.0 km/h 16.3 km/h 90% 0.0 mm
09:54 -1.5 °C -4.0 °C 1014.1 hPa NNE 14.0 km/h 16.9 km/h 89% 0.0 mm
09:59 -1.4 °C -3.0 °C 1014.1 hPa NNE 14.0 km/h 16.9 km/h 89% 0.0 mm
10:04 -1.4 °C -3.0 °C 1014.1 hPa NNE 14.0 km/h 16.3 km/h 89% 0.0 mm
10:10 -1.3 °C -3.0 °C 1014.1 hPa NE 13.7 km/h 14.0 km/h 89% 0.0 mm
10:15 -1.2 °C -3.0 °C 1014.1 hPa NE 13.7 km/h 14.0 km/h 89% 0.0 mm
10:20 -1.1 °C -3.0 °C 1014.1 hPa NE 13.7 km/h 13.7 km/h 88% 0.0 mm
10:25 -1.1 °C -3.0 °C 1014.1 hPa NE 13.7 km/h 13.7 km/h 88% 0.0 mm
10:30 -1.0 °C -3.0 °C 1014.1 hPa NE 13.7 km/h 13.7 km/h 87% 0.0 mm
10:35 -1.0 °C -3.0 °C 1014.1 hPa NE 16.9 km/h 20.1 km/h 87% 0.0 mm
10:40 -1.0 °C -4.0 °C 1014.1 hPa ENE 12.2 km/h 20.1 km/h 86% 0.0 mm
10:45 -1.0 °C -4.0 °C 1014.1 hPa NNE 12.6 km/h 16.9 km/h 86% 0.0 mm
10:50 -0.8 °C -4.0 °C 1014.1 hPa NNE 12.6 km/h 16.6 km/h 85% 0.0 mm
10:55 -0.7 °C -3.0 °C 1014.1 hPa NNE 12.6 km/h 12.6 km/h 85% 0.0 mm
11:00 -0.5 °C -3.0 °C 1014.1 hPa NE 15.1 km/h 15.1 km/h 85% 0.0 mm
11:05 -0.4 °C -4.0 °C 1014.1 hPa NE 15.1 km/h 15.1 km/h 83% 0.0 mm
11:10 -0.4 °C -4.0 °C 1014.1 hPa NE 15.1 km/h 15.1 km/h 82% 0.0 mm
11:15 -0.3 °C -4.0 °C 1014.1 hPa NE 15.1 km/h 15.1 km/h 81% 0.0 mm
11:20 -0.4 °C -4.0 °C 1014.1 hPa NE 15.1 km/h 15.1 km/h 80% 0.0 mm
11:25 -0.4 °C -4.0 °C 1014.1 hPa NE 15.1 km/h 15.1 km/h 79% 0.0 mm
11:30 -0.2 °C -4.0 °C 1014.1 hPa NNE 16.9 km/h 16.9 km/h 80% 0.0 mm
11:35 0.0 °C -4.0 °C 1014.1 hPa NNE 16.9 km/h 16.9 km/h 80% 0.0 mm
11:40 0.1 °C -3.0 °C 1014.1 hPa NNE 16.9 km/h 16.9 km/h 80% 0.0 mm
11:45 0.2 °C -3.0 °C 1014.1 hPa NNE 16.9 km/h 16.9 km/h 80% 0.0 mm
11:51 0.3 °C -3.0 °C 1014.1 hPa NNE 16.3 km/h 16.9 km/h 79% 0.0 mm
11:56 0.4 °C -3.0 °C 1014.1 hPa NNE 16.9 km/h 16.9 km/h 79% 0.0 mm
12:01 0.4 °C -2.0 °C 1013.1 hPa NNE 14.0 km/h 17.7 km/h 80% 0.0 mm
12:06 0.3 °C -3.0 °C 1013.1 hPa NE 13.7 km/h 17.7 km/h 79% 0.0 mm
12:11 0.2 °C -3.0 °C 1013.1 hPa NE 13.7 km/h 16.9 km/h 79% 0.0 mm
12:16 0.2 °C -3.0 °C 1014.1 hPa NE 13.7 km/h 13.7 km/h 79% 0.0 mm
12:21 0.3 °C -3.0 °C 1014.1 hPa NE 19.8 km/h 19.8 km/h 79% 0.0 mm
12:26 0.4 °C -2.0 °C 1014.1 hPa NE 19.8 km/h 19.8 km/h 80% 0.0 mm
12:31 0.4 °C -2.0 °C 1013.1 hPa NE 19.8 km/h 19.8 km/h 80% 0.0 mm
12:36 0.4 °C -3.0 °C 1013.1 hPa NE 19.8 km/h 19.8 km/h 79% 0.0 mm
12:41 0.4 °C -3.0 °C 1013.1 hPa NE 19.8 km/h 19.8 km/h 79% 0.0 mm
12:46 0.4 °C -3.0 °C 1013.1 hPa NE 19.8 km/h 19.8 km/h 79% 0.0 mm
12:51 0.5 °C -2.0 °C 1013.1 hPa NE 19.8 km/h 19.8 km/h 79% 0.0 mm
12:56 0.7 °C -2.0 °C 1013.1 hPa NE 19.8 km/h 19.8 km/h 79% 0.0 mm
13:01 0.7 °C -3.0 °C 1013.1 hPa NE 19.8 km/h 19.8 km/h 78% 0.0 mm
13:06 0.6 °C -3.0 °C 1013.1 hPa NE 19.8 km/h 19.8 km/h 77% 0.0 mm
13:11 0.7 °C -3.0 °C 1013.1 hPa NE 19.8 km/h 19.8 km/h 78% 0.0 mm
13:16 0.8 °C -2.0 °C 1012.1 hPa NE 19.8 km/h 19.8 km/h 78% 0.0 mm
13:21 1.0 °C -2.0 °C 1012.1 hPa NE 19.8 km/h 19.8 km/h 77% 0.0 mm
13:26 1.1 °C -2.0 °C 1012.1 hPa NE 19.8 km/h 19.8 km/h 77% 0.0 mm
13:31 1.4 °C -2.0 °C 1013.1 hPa NE 19.8 km/h 19.8 km/h 76% 0.0 mm
13:36 1.4 °C -2.0 °C 1013.1 hPa NE 19.8 km/h 19.8 km/h 75% 0.0 mm
13:41 1.3 °C -3.0 °C 1013.1 hPa NE 19.8 km/h 19.8 km/h 74% 0.0 mm
13:46 1.3 °C -2.0 °C 1013.1 hPa NE 19.8 km/h 19.8 km/h 75% 0.0 mm
13:51 1.2 °C -2.0 °C 1013.1 hPa NE 19.8 km/h 19.8 km/h 75% 0.0 mm
13:56 1.2 °C -2.0 °C 1013.1 hPa NE 19.8 km/h 19.8 km/h 75% 0.0 mm
14:01 1.3 °C -2.0 °C 1013.1 hPa NE 19.8 km/h 19.8 km/h 75% 0.0 mm
14:06 1.5 °C -2.0 °C 1013.1 hPa NE 19.8 km/h 19.8 km/h 75% 0.0 mm
14:12 1.7 °C -2.0 °C 1013.1 hPa NE 19.8 km/h 19.8 km/h 74% 0.0 mm
14:17 1.8 °C -3.0 °C 1013.1 hPa NE 19.8 km/h 19.8 km/h 73% 0.0 mm
14:22 1.7 °C -3.0 °C 1013.1 hPa NE 19.8 km/h 19.8 km/h 72% 0.0 mm
14:27 1.6 °C -3.0 °C 1013.1 hPa NE 19.8 km/h 19.8 km/h 71% 0.0 mm
14:32 1.6 °C -3.0 °C 1013.1 hPa NE 19.8 km/h 19.8 km/h 73% 0.0 mm
14:37 1.5 °C -3.0 °C 1013.1 hPa NE 19.8 km/h 19.8 km/h 73% 0.0 mm
14:42 1.4 °C -3.0 °C 1013.1 hPa NE 19.8 km/h 19.8 km/h 73% 0.0 mm
14:47 1.5 °C -3.0 °C 1012.1 hPa NE 19.8 km/h 19.8 km/h 73% 0.0 mm
14:52 1.5 °C -3.0 °C 1012.1 hPa NE 19.8 km/h 19.8 km/h 72% 0.0 mm
14:57 1.5 °C -3.0 °C 1012.1 hPa NE 19.8 km/h 19.8 km/h 72% 0.0 mm
15:02 1.5 °C -3.0 °C 1012.1 hPa NE 19.8 km/h 19.8 km/h 71% 0.0 mm
15:07 1.8 °C -3.0 °C 1012.1 hPa NE 19.8 km/h 19.8 km/h 71% 0.0 mm
15:12 1.9 °C -3.0 °C 1012.1 hPa NE 19.8 km/h 19.8 km/h 71% 0.0 mm
15:17 1.8 °C -3.0 °C 1012.1 hPa NE 19.8 km/h 19.8 km/h 70% 0.0 mm
15:22 1.7 °C -3.0 °C 1012.1 hPa NE 19.8 km/h 19.8 km/h 71% 0.0 mm
15:27 1.7 °C -3.0 °C 1012.1 hPa NE 19.8 km/h 19.8 km/h 72% 0.0 mm
15:32 1.6 °C -3.0 °C 1012.1 hPa NE 19.8 km/h 19.8 km/h 72% 0.0 mm
15:37 1.8 °C -3.0 °C 1012.1 hPa NE 19.8 km/h 19.8 km/h 71% 0.0 mm
15:42 2.0 °C -2.0 °C 1012.1 hPa NE 19.8 km/h 19.8 km/h 72% 0.0 mm
15:47 2.0 °C -2.0 °C 1012.1 hPa NE 15.8 km/h 15.8 km/h 71% 0.0 mm
15:52 1.9 °C -3.0 °C 1012.1 hPa NE 15.8 km/h 15.8 km/h 70% 0.0 mm
15:57 1.8 °C -3.0 °C 1012.1 hPa NE 15.8 km/h 15.8 km/h 70% 0.0 mm
16:02 1.7 °C -3.0 °C 1012.1 hPa NE 15.8 km/h 15.8 km/h 70% 0.0 mm
16:07 1.8 °C -3.0 °C 1012.1 hPa NNE 16.3 km/h 16.3 km/h 69% 0.0 mm
16:12 1.8 °C -3.0 °C 1012.1 hPa NNE 16.3 km/h 16.3 km/h 70% 0.0 mm
16:17 1.7 °C -3.0 °C 1012.1 hPa NNE 16.3 km/h 16.3 km/h 69% 0.0 mm
16:22 1.6 °C -3.0 °C 1012.1 hPa NNE 16.3 km/h 16.3 km/h 69% 0.0 mm
16:34 1.6 °C -3.0 °C 1012.1 hPa NNE 16.3 km/h 16.3 km/h 70% 0.0 mm
16:39 1.5 °C -3.0 °C 1012.1 hPa NNE 16.3 km/h 16.3 km/h 70% 0.0 mm
16:44 1.5 °C -3.0 °C 1013.1 hPa NNE 16.3 km/h 16.3 km/h 71% 0.0 mm
16:49 1.5 °C -3.0 °C 1013.1 hPa NNE 16.3 km/h 16.3 km/h 72% 0.0 mm
16:54 1.4 °C -3.0 °C 1013.1 hPa North 13.0 km/h 13.0 km/h 72% 0.0 mm
16:59 1.4 °C -3.0 °C 1012.1 hPa NE 14.0 km/h 16.6 km/h 72% 0.0 mm
17:04 1.3 °C -3.0 °C 1012.1 hPa NE 12.2 km/h 16.6 km/h 72% 0.0 mm
17:09 1.3 °C -3.0 °C 1012.1 hPa NE 12.2 km/h 15.4 km/h 72% 0.0 mm
17:14 1.2 °C -3.0 °C 1013.1 hPa NE 12.2 km/h 12.2 km/h 72% 0.0 mm
17:19 1.2 °C -3.0 °C 1013.1 hPa NE 12.2 km/h 12.2 km/h 72% 0.0 mm
17:24 1.1 °C -3.0 °C 1013.1 hPa NE 12.2 km/h 12.2 km/h 72% 0.0 mm
17:29 1.1 °C -3.0 °C 1013.1 hPa NE 12.2 km/h 12.2 km/h 72% 0.0 mm
17:34 1.0 °C -3.0 °C 1013.1 hPa NE 12.2 km/h 12.2 km/h 73% 0.0 mm
17:39 0.9 °C -3.0 °C 1013.1 hPa NE 12.2 km/h 12.2 km/h 74% 0.0 mm
17:44 0.8 °C -3.0 °C 1013.1 hPa NE 12.2 km/h 12.2 km/h 74% 0.0 mm
17:50 0.8 °C -3.0 °C 1013.1 hPa NE 12.2 km/h 12.2 km/h 75% 0.0 mm
17:55 0.8 °C -3.0 °C 1013.1 hPa NE 12.2 km/h 12.2 km/h 75% 0.0 mm
18:00 0.7 °C -3.0 °C 1013.1 hPa NE 8.7 km/h 8.7 km/h 76% 0.0 mm
18:05 0.7 °C -3.0 °C 1013.1 hPa NE 8.7 km/h 8.7 km/h 76% 0.0 mm
18:10 0.7 °C -3.0 °C 1013.1 hPa NE 8.7 km/h 8.7 km/h 77% 0.0 mm
18:15 0.6 °C -3.0 °C 1013.1 hPa NE 8.7 km/h 8.7 km/h 77% 0.0 mm
18:20 0.6 °C -3.0 °C 1013.1 hPa NE 8.7 km/h 8.7 km/h 78% 0.0 mm
18:25 0.6 °C -3.0 °C 1013.1 hPa NE 8.7 km/h 8.7 km/h 78% 0.0 mm
18:30 0.6 °C -3.0 °C 1013.1 hPa NE 8.7 km/h 8.7 km/h 78% 0.0 mm
18:35 0.6 °C -3.0 °C 1013.1 hPa NE 8.7 km/h 8.7 km/h 78% 0.0 mm
18:40 0.5 °C -3.0 °C 1013.1 hPa NE 8.7 km/h 8.7 km/h 78% 0.0 mm
18:45 0.5 °C -3.0 °C 1013.1 hPa NE 8.7 km/h 8.7 km/h 78% 0.0 mm
18:50 0.5 °C -3.0 °C 1013.1 hPa NE 8.7 km/h 8.7 km/h 78% 0.0 mm
18:55 0.5 °C -3.0 °C 1013.1 hPa NE 8.7 km/h 8.7 km/h 78% 0.0 mm
19:00 0.5 °C -3.0 °C 1013.1 hPa NE 8.7 km/h 8.7 km/h 78% 0.0 mm
19:05 0.4 °C -3.0 °C 1013.1 hPa NE 8.7 km/h 8.7 km/h 78% 0.0 mm
19:10 0.4 °C -3.0 °C 1013.1 hPa NE 8.7 km/h 8.7 km/h 78% 0.0 mm
19:15 0.3 °C -3.0 °C 1013.1 hPa NE 8.7 km/h 8.7 km/h 78% 0.0 mm
19:20 0.3 °C -3.0 °C 1013.1 hPa NE 8.7 km/h 8.7 km/h 78% 0.0 mm
19:25 0.3 °C -3.0 °C 1013.1 hPa NE 8.7 km/h 8.7 km/h 78% 0.0 mm
19:30 0.2 °C -3.0 °C 1013.1 hPa NE 8.7 km/h 8.7 km/h 78% 0.0 mm
19:35 0.2 °C -3.0 °C 1013.1 hPa NE 8.7 km/h 8.7 km/h 79% 0.0 mm
19:40 0.1 °C -3.0 °C 1013.1 hPa NE 8.7 km/h 8.7 km/h 79% 0.0 mm
19:45 0.1 °C -3.0 °C 1013.1 hPa NE 8.7 km/h 8.7 km/h 80% 0.0 mm
19:50 0.0 °C -4.0 °C 1013.1 hPa NE 8.7 km/h 8.7 km/h 80% 0.0 mm
19:55 -0.1 °C -4.0 °C 1013.1 hPa NE 8.7 km/h 8.7 km/h 81% 0.0 mm
20:00 -0.2 °C -4.0 °C 1013.1 hPa NE 8.7 km/h 8.7 km/h 81% 0.0 mm
20:05 -0.3 °C -4.0 °C 1013.1 hPa NE 8.7 km/h 8.7 km/h 82% 0.0 mm
20:10 -0.4 °C -4.0 °C 1013.1 hPa NE 8.7 km/h 8.7 km/h 82% 0.0 mm
20:15 -0.4 °C -4.0 °C 1013.1 hPa NE 8.7 km/h 8.7 km/h 83% 0.0 mm
20:20 -0.5 °C -4.0 °C 1013.1 hPa NE 8.7 km/h 8.7 km/h 83% 0.0 mm
20:25 -0.5 °C -4.0 °C 1013.1 hPa NE 8.7 km/h 8.7 km/h 84% 0.0 mm
20:30 -0.5 °C -4.0 °C 1013.1 hPa NE 8.7 km/h 8.7 km/h 84% 0.0 mm
20:35 -0.5 °C -4.0 °C 1013.1 hPa NE 8.7 km/h 8.7 km/h 84% 0.0 mm
20:41 -0.5 °C -3.0 °C 1013.1 hPa NE 8.7 km/h 8.7 km/h 85% 0.0 mm
20:46 -0.5 °C -3.0 °C 1013.1 hPa NE 8.7 km/h 8.7 km/h 85% 0.0 mm
20:51 -0.6 °C -3.0 °C 1013.1 hPa NE 8.7 km/h 8.7 km/h 85% 0.0 mm
20:56 -0.6 °C -3.0 °C 1013.1 hPa NE 8.7 km/h 8.7 km/h 85% 0.0 mm
21:01 -0.6 °C -3.0 °C 1014.1 hPa NE 8.7 km/h 8.7 km/h 85% 0.0 mm
21:06 -0.7 °C -3.0 °C 1014.1 hPa NE 8.7 km/h 8.7 km/h 85% 0.0 mm
21:11 -0.7 °C -3.0 °C 1014.1 hPa NE 8.7 km/h 8.7 km/h 85% 0.0 mm
21:16 -0.7 °C -3.0 °C 1014.1 hPa NE 8.7 km/h 8.7 km/h 85% 0.0 mm
21:21 -0.7 °C -3.0 °C 1014.1 hPa NE 8.7 km/h 8.7 km/h 85% 0.0 mm
21:26 -0.7 °C -3.0 °C 1014.1 hPa NE 8.7 km/h 8.7 km/h 86% 0.0 mm
21:31 -0.7 °C -3.0 °C 1014.1 hPa NE 8.7 km/h 8.7 km/h 86% 0.0 mm
21:36 -0.7 °C -3.0 °C 1014.1 hPa NE 8.7 km/h 8.7 km/h 86% 0.0 mm
21:41 -0.7 °C -3.0 °C 1014.1 hPa NE 8.7 km/h 8.7 km/h 87% 0.0 mm
21:47 -0.7 °C -3.0 °C 1014.1 hPa NE 8.7 km/h 8.7 km/h 87% 0.0 mm
21:52 -0.7 °C -3.0 °C 1014.1 hPa NE 8.7 km/h 8.7 km/h 87% 0.0 mm
21:57 -0.6 °C -3.0 °C 1014.1 hPa NE 8.7 km/h 8.7 km/h 87% 0.0 mm
22:02 -0.6 °C -3.0 °C 1014.1 hPa NE 8.7 km/h 8.7 km/h 88% 0.0 mm
22:07 -0.5 °C -3.0 °C 1014.1 hPa NE 8.7 km/h 8.7 km/h 88% 0.0 mm
22:12 -0.6 °C -3.0 °C 1014.1 hPa NE 8.7 km/h 8.7 km/h 87% 0.0 mm
22:17 -0.6 °C -3.0 °C 1014.1 hPa NE 8.7 km/h 8.7 km/h 87% 0.0 mm
22:22 -0.6 °C -3.0 °C 1014.1 hPa NE 8.7 km/h 8.7 km/h 87% 0.0 mm
22:27 -0.6 °C -3.0 °C 1014.1 hPa NE 8.7 km/h 8.7 km/h 86% 0.0 mm
22:32 -0.5 °C -3.0 °C 1014.1 hPa NE 8.7 km/h 8.7 km/h 86% 0.0 mm
22:37 -0.5 °C -3.0 °C 1014.1 hPa ENE 10.1 km/h 10.1 km/h 85% 0.0 mm
22:42 -0.5 °C -3.0 °C 1014.1 hPa NNE 11.6 km/h 11.6 km/h 85% 0.0 mm
22:47 -0.5 °C -3.0 °C 1014.1 hPa NE 13.0 km/h 13.0 km/h 85% 0.0 mm
22:52 -0.5 °C -4.0 °C 1014.1 hPa NE 12.2 km/h 13.0 km/h 84% 0.0 mm
22:57 -0.5 °C -4.0 °C 1014.1 hPa NE 13.7 km/h 16.6 km/h 83% 0.0 mm
23:02 -0.5 °C -4.0 °C 1014.1 hPa NE 13.0 km/h 16.6 km/h 82% 0.0 mm
23:07 -0.5 °C -4.0 °C 1014.1 hPa NE 14.0 km/h 14.0 km/h 82% 0.0 mm
23:12 -0.5 °C -4.0 °C 1014.1 hPa NNE 11.9 km/h 14.0 km/h 81% 0.0 mm
23:17 -0.5 °C -4.0 °C 1014.1 hPa NE 12.2 km/h 14.0 km/h 81% 0.0 mm
23:22 -0.6 °C -4.0 °C 1014.1 hPa NE 14.0 km/h 14.0 km/h 81% 0.0 mm
23:27 -0.6 °C -4.0 °C 1014.1 hPa NE 15.4 km/h 15.4 km/h 81% 0.0 mm
23:32 -0.6 °C -4.0 °C 1014.1 hPa NE 8.7 km/h 15.4 km/h 82% 0.0 mm
23:37 -0.6 °C -4.0 °C 1014.1 hPa NNE 13.7 km/h 13.7 km/h 82% 0.0 mm
23:42 -0.6 °C -4.0 °C 1014.1 hPa NNE 13.7 km/h 13.7 km/h 82% 0.0 mm
23:47 -0.7 °C -4.0 °C 1014.1 hPa NNE 13.7 km/h 13.7 km/h 82% 0.0 mm
23:52 -0.7 °C -4.0 °C 1014.1 hPa NNE 13.7 km/h 13.7 km/h 81% 0.0 mm
23:57 -0.7 °C -4.0 °C 1014.1 hPa NNE 8.7 km/h 13.7 km/h 81% 0.0 mm
Données Historique de Météo Turbie

Mise a jour : 18/06/2018 00:21:13
Généré par Cumulus 1.9.4 (1099)